Weather reports worldwide

Advertisment
Boulogne, France (7002): temperature & dewpoint: 10.12.2019 03:00:00 - 16.12.2019 03:00:00 (CET)Boulogne, France (7002): wind speed & gusts: 10.12.2019 03:00:00 - 16.12.2019 03:00:00 (CET)Boulogne, France (7002): wind direction: 10.12.2019 03:00:00 - 16.12.2019 03:00:00 (CET)Boulogne, France (7002): reduced air pressure: 10.12.2019 03:00:00 - 16.12.2019 03:00:00 (CET)Boulogne, France (7002): visibility: 10.12.2019 03:00:00 - 16.12.2019 03:00:00 (CET)Boulogne, France (7002): precipitation: 10.12.2019 03:00:00 - 16.12.2019 03:00:00 (CET)
Date & Time tt [°C] td [°C] ff [km/h] ff [kn] fx [km/h] fx [kn] dd ppp [hPa] vv [km] rr [mm]
16.12.2019 03:00:00 8,0 6,0 23 12 48 26 S 1002,7 - 0,0
16.12.2019 02:00:00 7,6 5,4 24 13 46 25 S 1002,6 - 0,0
16.12.2019 01:00:00 7,2 5,0 25 14 50 27 S 1002,6 10 0,0
16.12.2019 00:00:00 6,8 4,6 27 15 50 27 S 1002,6 - 0,0
15.12.2019 23:00:00 7,1 4,4 29 16 54 29 S 1002,7 - 0,0
15.12.2019 22:00:00 7,2 4,0 27 15 49 26 S 1003,0 10 0,0
15.12.2019 21:00:00 7,5 3,7 25 14 51 28 S 1003,1 - 0,0
15.12.2019 20:00:00 8,4 4,2 25 13 49 27 SSW 1003,3 - 0,0
15.12.2019 19:00:00 8,5 4,3 24 13 55 30 SSW 1003,1 9 0,0
15.12.2019 18:00:00 9,0 4,6 31 17 60 33 SSW 1002,8 - 0,0
15.12.2019 17:00:00 8,7 5,1 32 17 61 33 SSW 1002,4 - 0,0
15.12.2019 16:00:00 9,4 5,8 33 18 71 38 SW 1001,7 9 0,0
15.12.2019 15:00:00 8,2 5,0 51 27 84 45 WSW 1001,3 - 0,0
15.12.2019 14:00:00 7,7 5,3 47 26 81 44 WSW 1000,7 - 0,4
15.12.2019 13:00:00 9,4 5,4 44 24 80 43 SW 1000,1 9 0,0
15.12.2019 12:00:00 8,4 5,7 44 24 80 43 SW 999,9 - 0,0
15.12.2019 11:00:00 7,1 4,9 51 27 85 46 WSW 999,4 - 1,4
15.12.2019 10:00:00 9,5 4,7 49 26 76 41 WSW 998,4 9 0,0
15.12.2019 09:00:00 9,3 2,6 42 23 74 40 WSW 997,6 - 0,0
15.12.2019 08:00:00 8,8 2,1 41 22 72 39 WSW 996,7 - 0,0
15.12.2019 07:00:00 8,8 2,4 41 22 79 43 W 995,9 15 0,0
15.12.2019 06:00:00 8,9 0,6 55 30 85 46 W 994,4 - 0,0
15.12.2019 05:00:00 8,7 3,9 48 26 111 60 W 992,9 - 0,2
15.12.2019 04:00:00 9,5 6,4 40 22 79 42 W 991,9 7 0,0
15.12.2019 03:00:00 9,0 7,9 46 25 110 59 WSW 990,8 - 1,8
15.12.2019 02:00:00 9,4 8,0 35 19 69 37 SSW 990,0 - 0,4
15.12.2019 01:00:00 8,7 6,7 38 20 73 40 S 991,2 7 0,0
15.12.2019 00:00:00 8,2 4,0 34 18 59 32 S 992,5 - 0,0
14.12.2019 23:00:00 7,6 3,6 35 19 61 33 S 993,4 - 0,0
14.12.2019 22:00:00 8,1 3,7 29 16 57 31 S 994,9 7 0,0
14.12.2019 21:00:00 8,4 5,7 26 14 55 30 S 996,5 - 0,0
14.12.2019 20:00:00 9,3 3,7 28 15 61 33 SW 997,3 - 0,0
14.12.2019 19:00:00 9,4 2,3 39 21 63 34 WSW 997,6 - 0,0
14.12.2019 18:00:00 9,0 2,1 39 21 70 38 WSW 997,5 - 0,0
14.12.2019 17:00:00 8,8 1,9 48 26 95 52 W 997,1 - 0,0
14.12.2019 16:00:00 8,8 1,7 56 30 98 53 W 996,1 8 0,0
14.12.2019 15:00:00 8,8 0,7 61 33 106 57 W 995,3 - 0,0
14.12.2019 14:00:00 8,9 1,8 68 37 111 60 W 993,8 - 0,0
14.12.2019 13:00:00 6,9 5,7 54 29 100 54 W 992,5 6 1,4
14.12.2019 12:00:00 8,4 6,7 46 25 86 46 SW 992,6 - 0,2
14.12.2019 11:00:00 9,3 4,5 43 23 76 41 WSW 992,5 - 0,0
14.12.2019 10:00:00 9,2 2,3 42 23 79 43 W 992,6 7 0,0
14.12.2019 09:00:00 8,4 2,8 51 28 94 51 W 992,2 - 0,0
14.12.2019 08:00:00 8,1 1,2 65 35 124 67 W 991,2 - 0,0
14.12.2019 07:00:00 8,0 2,9 72 39 109 59 W 989,5 - 0,0
14.12.2019 06:00:00 8,0 4,0 55 30 83 45 W 988,1 - 0,0
14.12.2019 05:00:00 7,2 4,8 45 24 68 37 W 987,3 - 0,0
14.12.2019 04:00:00 6,0 4,3 29 16 60 33 NW 985,8 - 0,0
14.12.2019 03:00:00 6,3 5,4 37 20 74 40 NNW 982,5 - 0,4
14.12.2019 02:00:00 10,0 8,9 59 32 90 49 W 979,5 - 0,8
14.12.2019 01:00:00 7,0 6,6 26 14 52 28 SSE 979,3 4,0 3,3
14.12.2019 00:00:00 7,7 7,1 23 13 48 26 SSW 981,9 - 2,0
13.12.2019 23:00:00 7,3 6,4 26 14 61 33 SW 983,4 - 1,2
13.12.2019 22:00:00 9,3 3,5 34 18 54 29 WSW 984,7 10 0,0
13.12.2019 21:00:00 8,7 2,0 31 17 64 34 W 986,1 - 0,0
13.12.2019 20:00:00 8,5 1,9 35 19 66 35 W 986,9 - 0,0
13.12.2019 19:00:00 8,1 1,9 32 17 67 36 W 986,6 10 0,0
13.12.2019 18:00:00 8,6 2,6 39 21 74 40 W 987,3 - 0,0
13.12.2019 17:00:00 8,5 2,3 45 24 74 40 W 986,7 - 0,0
13.12.2019 16:00:00 8,3 3,1 45 24 68 37 W 985,9 - 0,0
13.12.2019 15:00:00 8,1 2,5 42 23 64 35 W 985,0 - 0,0
13.12.2019 14:00:00 8,2 3,0 44 24 73 39 W 983,9 - 0,0
13.12.2019 13:00:00 8,0 3,5 45 24 75 41 WNW 983,0 10 0,0
13.12.2019 12:00:00 8,0 4,0 48 26 83 45 WNW 981,5 - 0,0
13.12.2019 11:00:00 7,5 4,1 46 25 85 46 WNW 980,0 - 0,0
13.12.2019 10:00:00 7,1 4,2 57 31 93 50 WNW 978,0 8 0,0
13.12.2019 09:00:00 7,5 4,3 56 31 89 48 WNW 976,1 - 0,0
13.12.2019 08:00:00 7,3 3,9 56 30 93 50 WNW 974,6 - 0,0
13.12.2019 07:00:00 7,2 4,3 61 33 92 50 WNW 973,3 8 0,2
13.12.2019 06:00:00 7,2 5,5 63 34 90 49 W 972,0 - 0,6
13.12.2019 05:00:00 7,6 5,6 51 28 86 47 WNW 971,6 - 0,6
13.12.2019 04:00:00 8,1 6,6 50 27 72 39 W 971,0 - 0,4
13.12.2019 03:00:00 6,6 5,9 9 5 50 27 SW 971,5 - 5,4
13.12.2019 02:00:00 7,7 6,9 21 12 63 34 S 972,3 - 5,1
13.12.2019 01:00:00 8,7 7,8 32 17 58 31 SSW 974,5 8 2,0
13.12.2019 00:00:00 9,7 7,1 24 13 43 23 SW 976,2 - 0,0
12.12.2019 23:00:00 9,7 6,8 27 15 61 33 WSW 978,0 - 0,0
12.12.2019 22:00:00 9,9 6,6 40 22 69 37 WSW 979,1 8 0,0
12.12.2019 21:00:00 9,8 7,0 45 25 83 45 WSW 979,7 - 0,4
12.12.2019 20:00:00 6,8 6,2 41 22 75 40 S 980,4 - 3,5
12.12.2019 19:00:00 6,0 5,3 40 22 77 41 SSE 981,5 8 0,8
12.12.2019 18:00:00 5,6 5,0 35 19 65 35 SSE 983,9 - 1,2
12.12.2019 17:00:00 5,4 4,5 32 17 64 34 SSE 985,8 - 0,6
12.12.2019 16:00:00 5,6 4,4 35 19 65 35 SSE 987,6 12 0,0
12.12.2019 15:00:00 5,6 3,9 33 18 61 33 SSE 989,4 - 0,0
12.12.2019 14:00:00 5,1 3,8 37 20 70 38 SSE 991,4 - 0,2
12.12.2019 13:00:00 4,9 3,2 37 20 64 35 SSE 993,4 - 0,0
12.12.2019 12:00:00 5,0 3,0 27 14 50 27 SSE 995,9 - 0,0
12.12.2019 11:00:00 4,7 2,9 29 15 53 28 S 998,0 - 0,0
12.12.2019 10:00:00 4,7 3,7 27 14 50 27 S 999,3 - 0,0
12.12.2019 09:00:00 4,8 3,8 27 14 47 25 S 1000,4 - 0,4
12.12.2019 08:00:00 5,8 3,6 23 12 41 22 SSW 1001,3 - 0,0
12.12.2019 07:00:00 6,4 1,7 13 7 27 15 SSW 1001,9 20 0,0
12.12.2019 06:00:00 6,1 1,8 14 8 29 16 WSW 1002,7 - 0,0
12.12.2019 05:00:00 5,8 1,7 19 10 35 19 W 1003,4 - 0,0
12.12.2019 04:00:00 5,9 2,4 22 12 35 19 W 1003,8 - 0,0
12.12.2019 03:00:00 5,8 2,4 24 13 35 19 W 1004,1 - 0,0
12.12.2019 02:00:00 5,7 2,3 23 12 35 19 WNW 1003,9 - 0,0
12.12.2019 01:00:00 5,7 2,9 22 12 40 22 WNW 1004,0 - 0,0
12.12.2019 00:00:00 5,9 3,4 19 10 40 22 WNW 1003,8 - 0,0
11.12.2019 23:00:00 6,8 3,0 28 15 43 23 WNW 1003,5 - 0,0
11.12.2019 22:00:00 7,2 3,2 28 15 41 22 W 1003,4 12 0,0
11.12.2019 21:00:00 7,0 3,1 28 15 53 29 WSW 1003,0 - 0,0
11.12.2019 20:00:00 6,3 2,9 26 14 53 29 W 1003,0 - 2,4
11.12.2019 19:00:00 7,2 4,2 22 12 68 37 SW 1002,7 15 0,8
11.12.2019 18:00:00 6,7 5,0 17 9 63 34 SSW 1003,4 - 1,0
11.12.2019 17:00:00 7,2 4,2 29 16 55 30 SSW 1003,3 - 0,0
11.12.2019 16:00:00 7,1 4,7 38 20 63 34 SW 1003,9 6 0,2
11.12.2019 15:00:00 7,8 3,8 24 13 68 37 SW 1004,4 - 0,0
11.12.2019 14:00:00 8,8 3,6 29 16 58 31 SW 1005,0 - 0,2
11.12.2019 13:00:00 8,5 3,5 27 15 43 23 SW 1006,0 - 0,0
11.12.2019 12:00:00 8,1 4,7 9 5 19 10 S 1007,1 - 0,0
11.12.2019 11:00:00 7,4 4,5 9 5 22 12 WSW 1008,3 - 0,2
11.12.2019 10:00:00 7,4 4,0 6 3 21 11 SW 1008,6 8 0,0
11.12.2019 09:00:00 7,6 3,6 11 6 26 14 WNW 1008,8 - 0,0
11.12.2019 08:00:00 7,7 3,7 19 11 29 16 W 1009,1 - 0,0
11.12.2019 07:00:00 7,9 3,7 19 10 33 18 W 1009,3 10 0,0
11.12.2019 06:00:00 8,2 4,6 22 12 35 19 W 1009,5 - 0,0
11.12.2019 05:00:00 8,6 4,2 23 12 40 22 WNW 1009,7 - 0,0
11.12.2019 04:00:00 9,1 5,5 24 13 43 23 W 1009,9 - 0,0
11.12.2019 03:00:00 9,4 5,8 28 15 48 26 W 1010,0 - 0,0
11.12.2019 02:00:00 9,2 6,3 26 14 52 28 W 1010,1 - 0,0
11.12.2019 01:00:00 9,3 7,9 31 17 75 40 WSW 1010,0 - 0,8
11.12.2019 00:00:00 9,2 8,3 39 21 81 44 SSW 1009,1 - 0,0
10.12.2019 23:00:00 9,4 7,2 37 20 77 41 S 1009,1 - 0,0
10.12.2019 22:00:00 9,1 6,4 38 21 77 42 S 1009,1 6 0,0
10.12.2019 21:00:00 8,8 5,9 40 22 79 43 S 1009,8 - 0,0
10.12.2019 20:00:00 8,5 5,4 37 20 80 43 S 1011,1 - 0,0
10.12.2019 19:00:00 8,1 4,7 41 22 81 44 S 1011,9 9 0,0
10.12.2019 18:00:00 7,4 5,2 44 24 79 43 S 1012,5 - 0,0
10.12.2019 17:00:00 8,1 3,9 37 20 70 38 S 1013,6 - 0,0
10.12.2019 16:00:00 7,8 4,2 39 21 70 38 S 1014,5 7 0,0
10.12.2019 15:00:00 7,6 3,6 37 20 75 41 S 1016,2 - 0,0
10.12.2019 14:00:00 7,5 3,2 40 22 68 37 S 1017,7 - 0,0
10.12.2019 13:00:00 7,9 4,1 35 19 68 37 S 1019,1 8 0,0
10.12.2019 12:00:00 7,0 3,6 32 17 57 31 S 1020,6 - 0,0
10.12.2019 11:00:00 6,3 3,1 29 16 54 29 S 1022,2 - 0,0
10.12.2019 10:00:00 5,6 2,8 28 15 44 24 S 1022,6 - 0,0
10.12.2019 09:00:00 4,9 2,4 28 15 53 29 S 1023,5 - 0,0
10.12.2019 08:00:00 4,3 2,0 24 13 41 22 S 1024,3 - 0,0
10.12.2019 07:00:00 3,2 1,1 18 10 30 16 SSE 1024,7 - 0,0
10.12.2019 06:00:00 2,7 -0,2 15 8 22 12 SSE 1025,3 - 0,0
10.12.2019 05:00:00 2,3 -0,6 13 7 22 12 SE 1026,0 - 0,0
10.12.2019 04:00:00 2,8 -0,7 12 6 19 10 SSE 1026,1 - 0,0
10.12.2019 03:00:00 3,6 -1,0 9 5 13 7 SSE 1026,1 - 0,0

tt = temperature
td = dewpoint
ff = wind speed
fx = gusts
dd = wind direction
ppp = reduced air pressure
vv = visibility
rr = precipitation

Next stations